Waarnemingen

Advertentie
Mijn weer
Asturias/Aviles, Spanje (8011): temperatuur & dauwpunt: 11.12.2018 20:00:00 - 17.12.2018 20:00:00 (CET)Asturias/Aviles, Spanje (8011): windsnelheid & windstoten: 11.12.2018 20:00:00 - 17.12.2018 20:00:00 (CET)Asturias/Aviles, Spanje (8011): windrichting: 11.12.2018 20:00:00 - 17.12.2018 20:00:00 (CET)Asturias/Aviles, Spanje (8011): luchtdruk: 11.12.2018 20:00:00 - 17.12.2018 20:00:00 (CET)Asturias/Aviles, Spanje (8011): zicht: 11.12.2018 20:00:00 - 17.12.2018 20:00:00 (CET)
Datum & Tijd tt [°C] td [°C] ff [km/u] ff [kn] fx [km/u] fx [kn] dd ppp [hPa] vv [km]
17.12.2018 20:00:00 8,5 3,3 13 7 - - ZZW 1022,5 -
17.12.2018 19:00:00 7,0 2,6 8 4 - - ZZO 1022,8 30
17.12.2018 18:00:00 7,8 4,0 9 5 - - Z 1023,6 -
17.12.2018 17:00:00 10,6 5,4 13 7 - - ZO 1024,1 -
17.12.2018 16:00:00 12,8 6,8 11 6 - - ZZO 1024,5 50
17.12.2018 15:00:00 12,2 7,2 5 3 - - ZO 1024,9 -
17.12.2018 14:00:00 12,7 7,5 0 0 - - N 1025,4 -
17.12.2018 13:00:00 13,6 5,0 5 3 - - WZW 1025,8 70
17.12.2018 12:00:00 11,6 4,0 8 4 - - ZZW 1026,7 -
17.12.2018 11:00:00 10,4 3,5 8 4 - - ZW 1026,6 -
17.12.2018 10:00:00 8,8 3,0 8 4 - - ZZW 1026,3 60
17.12.2018 09:00:00 7,7 3,0 8 4 - - ZZW 1026,8 -
17.12.2018 08:00:00 8,5 2,9 9 5 - - ZW 1026,4 -
17.12.2018 07:00:00 8,9 2,9 13 7 - - ZW 1026,0 20
17.12.2018 06:00:00 9,3 3,1 16 9 - - ZZW 1025,8 -
17.12.2018 05:00:00 8,5 2,9 15 8 - - ZW 1026,1 -
17.12.2018 04:00:00 9,1 2,9 16 9 - - ZW 1025,9 -
17.12.2018 03:00:00 9,0 2,8 16 9 - - ZW 1025,2 -
17.12.2018 02:00:00 9,1 2,7 15 8 - - ZW 1025,2 -
17.12.2018 01:00:00 9,6 2,9 21 11 - - ZW 1025,0 -
17.12.2018 00:00:00 9,5 2,8 16 9 - - ZW 1025,3 -
16.12.2018 23:00:00 10,0 2,8 21 11 - - WZW 1024,9 -
16.12.2018 22:00:00 9,3 2,8 21 11 - - ZW 1024,0 10
16.12.2018 21:00:00 9,3 2,8 15 8 - - ZW 1023,6 -
16.12.2018 20:00:00 9,9 2,3 13 7 - - ZW 1023,0 -
16.12.2018 19:00:00 10,0 2,7 16 9 - - WZW 1021,8 10
16.12.2018 18:00:00 10,5 3,2 16 9 - - WZW 1020,6 -
16.12.2018 17:00:00 11,6 2,5 26 14 - - W 1019,6 -
16.12.2018 16:00:00 12,0 3,2 39 21 - - W 1018,8 10
16.12.2018 15:00:00 11,4 5,8 24 13 76 41 ZW 1017,7 -
16.12.2018 14:00:00 11,7 4,2 42 23 - - W 1016,8 -
16.12.2018 13:00:00 12,9 5,4 29 16 - - WZW 1015,7 -
16.12.2018 12:00:00 11,2 6,3 16 9 - - ZW 1015,6 -
16.12.2018 11:00:00 10,1 6,7 5 3 - - ZZW 1014,5 -
16.12.2018 10:00:00 9,0 8,2 9 5 - - ZZW 1014,6 10
16.12.2018 09:00:00 8,7 8,1 13 7 - - ZZW 1014,5 -
16.12.2018 08:00:00 8,9 8,1 9 5 - - ZZW 1014,7 -
16.12.2018 07:00:00 8,8 8,2 8 4 - - ZZW 1015,4 10
16.12.2018 06:00:00 9,3 8,7 9 5 - - ZW 1015,5 -
16.12.2018 05:00:00 9,1 8,3 8 4 - - ZW 1015,8 -
16.12.2018 04:00:00 8,9 7,9 4 2 - - OZO 1016,6 -
16.12.2018 03:00:00 10,4 9,2 4 2 - - ZZW 1017,0 -
16.12.2018 02:00:00 11,4 9,9 2 1 - - WNW 1017,0 -
16.12.2018 01:00:00 11,6 9,8 11 6 - - WNW 1017,9 -
16.12.2018 00:00:00 11,9 11,0 9 5 - - NW 1017,9 -
15.12.2018 23:00:00 11,8 11,0 9 5 - - WNW 1018,0 -
15.12.2018 22:00:00 12,0 11,5 15 8 - - WNW 1017,9 3,0
15.12.2018 21:00:00 12,4 11,3 26 14 - - W 1018,0 -
15.12.2018 20:00:00 12,8 12,5 18 10 - - WNW 1017,3 -
15.12.2018 19:00:00 13,8 12,9 26 14 - - WNW 1016,3 9
15.12.2018 18:00:00 19,1 9,0 29 16 - - WZW 1014,3 -
15.12.2018 17:00:00 19,5 9,1 18 10 - - W 1014,1 -
15.12.2018 16:00:00 19,8 9,2 24 13 - - WZW 1013,5 25
15.12.2018 15:00:00 19,4 9,7 15 8 - - W 1015,1 -
15.12.2018 14:00:00 19,5 9,0 9 5 - - WZW 1014,7 -
15.12.2018 13:00:00 18,7 8,3 16 9 - - ZZW 1015,1 25
15.12.2018 12:00:00 17,6 9,7 15 8 - - ZW 1016,1 -
15.12.2018 11:00:00 16,4 11,4 5 3 - - WZW 1016,7 -
15.12.2018 10:00:00 14,8 11,2 4 2 - - ONO 1016,4 20
15.12.2018 09:00:00 16,8 10,4 18 10 - - W 1016,5 -
15.12.2018 08:00:00 15,1 10,7 4 2 - - ZW 1016,6 -
15.12.2018 07:00:00 16,1 10,6 8 4 - - WZW 1017,1 20
15.12.2018 06:00:00 16,1 10,4 11 6 - - ZW 1017,0 -
15.12.2018 05:00:00 15,6 10,6 16 9 - - ZW 1017,4 -
15.12.2018 04:00:00 15,3 10,5 18 10 - - ZW 1018,4 -
15.12.2018 03:00:00 14,2 10,2 8 4 - - WZW 1018,8 -
15.12.2018 02:00:00 13,7 9,5 15 8 - - ZZW 1019,1 -
15.12.2018 01:00:00 11,9 8,7 9 5 - - WZW 1019,8 -
15.12.2018 00:00:00 12,6 9,0 11 6 - - ZZW 1019,7 -
14.12.2018 23:00:00 11,5 9,2 8 4 - - ZZW 1020,6 -
14.12.2018 22:00:00 11,3 9,4 13 7 - - ZZW 1021,0 10
14.12.2018 21:00:00 10,8 8,3 11 6 - - ZZW 1021,8 -
14.12.2018 20:00:00 12,3 6,1 13 7 - - ZW 1022,0 -
14.12.2018 19:00:00 12,5 6,1 15 8 - - ZW 1022,0 25
14.12.2018 18:00:00 11,3 6,4 9 5 - - Z 1022,4 -
14.12.2018 17:00:00 12,8 6,8 4 2 - - WZW 1022,0 -
14.12.2018 16:00:00 12,6 5,9 13 7 - - ZW 1022,2 40
14.12.2018 15:00:00 13,2 6,4 11 6 - - ZW 1022,3 -
14.12.2018 14:00:00 12,4 6,6 9 5 - - ZW 1022,9 -
14.12.2018 13:00:00 12,0 6,5 11 6 - - ZW 1023,8 30
14.12.2018 12:00:00 11,0 6,3 13 7 - - ZZW 1024,3 -
14.12.2018 11:00:00 9,9 5,8 11 6 - - ZZW 1023,9 -
14.12.2018 10:00:00 8,7 5,1 9 5 - - ZW 1023,0 18
14.12.2018 09:00:00 8,2 5,0 13 7 - - ZW 1022,1 -
14.12.2018 08:00:00 8,0 5,5 11 6 - - ZW 1021,7 -
14.12.2018 07:00:00 8,6 6,3 9 5 - - WZW 1021,6 10
14.12.2018 06:00:00 9,4 5,6 22 12 - - W 1021,3 -
14.12.2018 05:00:00 9,3 6,6 21 11 - - W 1021,0 -
14.12.2018 04:00:00 9,7 6,2 18 10 - - W 1020,4 -
14.12.2018 03:00:00 9,2 6,1 16 9 - - W 1019,4 -
14.12.2018 02:00:00 9,3 6,7 16 9 - - W 1019,6 -
14.12.2018 01:00:00 9,4 6,4 18 10 - - W 1019,5 -
14.12.2018 00:00:00 9,4 6,7 22 12 - - W 1019,2 -
13.12.2018 23:00:00 8,7 7,3 11 6 - - ZW 1019,0 -
13.12.2018 22:00:00 9,8 6,3 24 13 - - W 1018,2 15
13.12.2018 21:00:00 9,4 6,7 24 13 - - W 1017,9 -
13.12.2018 20:00:00 9,9 7,3 28 15 - - W 1017,2 -
13.12.2018 19:00:00 9,7 7,9 29 16 - - WNW 1016,3 15
13.12.2018 18:00:00 10,5 7,4 31 17 - - W 1015,8 -
13.12.2018 17:00:00 8,8 7,1 34 18 - - WNW 1015,4 -
13.12.2018 16:00:00 10,8 7,5 29 16 - - WNW 1013,9 8
13.12.2018 15:00:00 11,4 6,7 34 18 - - WNW 1012,6 -
13.12.2018 14:00:00 10,5 6,9 26 14 - - W 1011,8 -
13.12.2018 13:00:00 - - - - - - - - -
13.12.2018 12:00:00 10,5 7,6 52 28 - - WNW 1010,6 -
13.12.2018 11:00:00 10,4 7,8 50 27 76 41 WNW 1009,5 -
13.12.2018 10:00:00 9,7 6,4 44 24 - - W 1008,2 9
13.12.2018 09:00:00 9,9 4,5 21 11 - - WZW 1007,2 -
13.12.2018 08:00:00 9,0 6,3 16 9 - - ZW 1006,5 -
13.12.2018 07:00:00 9,5 5,8 28 15 - - W 1006,7 12
13.12.2018 06:00:00 9,8 6,5 28 15 - - W 1006,7 -
13.12.2018 05:00:00 10,4 8,2 26 14 - - WNW 1005,7 -
13.12.2018 04:00:00 12,2 9,6 26 14 - - NW 1005,6 -
13.12.2018 03:00:00 10,7 8,6 8 4 - - ONO 1004,0 -
13.12.2018 02:00:00 9,7 8,3 8 4 - - ZO 1003,9 -
13.12.2018 01:00:00 9,8 8,2 8 4 - - ZZO 1005,5 -
13.12.2018 00:00:00 10,1 8,0 5 3 - - ZZO 1006,2 -
12.12.2018 23:00:00 11,0 6,8 11 6 - - Z 1007,0 -
12.12.2018 22:00:00 10,3 7,4 8 4 - - ZZO 1008,8 9
12.12.2018 21:00:00 10,6 7,1 11 6 - - ZZW 1010,7 -
12.12.2018 20:00:00 10,4 7,5 13 7 - - ZO 1012,1 -
12.12.2018 19:00:00 10,5 7,2 9 5 - - ZZW 1013,8 8
12.12.2018 18:00:00 10,2 7,8 2 1 - - O 1014,4 -
12.12.2018 17:00:00 11,2 8,4 5 3 - - OZO 1014,2 -
12.12.2018 16:00:00 11,7 7,8 18 10 - - ZO 1015,1 15
12.12.2018 15:00:00 12,2 8,4 5 3 - - Z 1017,2 -
12.12.2018 14:00:00 11,8 8,0 2 1 - - O 1018,5 -
12.12.2018 13:00:00 12,2 7,4 9 5 - - ZO 1019,6 15
12.12.2018 12:00:00 11,7 7,6 8 4 - - O 1020,7 -
12.12.2018 11:00:00 10,3 7,8 5 3 - - ZW 1021,3 -
12.12.2018 10:00:00 9,8 7,7 8 4 - - ZZW 1021,5 15
12.12.2018 09:00:00 9,2 7,4 4 2 - - ZZO 1022,0 -
12.12.2018 08:00:00 10,0 7,2 8 4 - - WZW 1022,6 -
12.12.2018 07:00:00 10,8 7,8 8 4 - - W 1023,0 12
12.12.2018 06:00:00 10,8 7,8 11 6 - - W 1023,2 -
12.12.2018 05:00:00 10,8 8,0 13 7 - - W 1023,3 -
12.12.2018 04:00:00 10,7 7,9 8 4 - - WZW 1023,6 -
12.12.2018 03:00:00 11,5 8,4 11 6 - - W 1023,7 -
12.12.2018 02:00:00 11,6 8,2 13 7 - - W 1023,4 -
12.12.2018 01:00:00 11,8 8,0 15 8 - - W 1023,5 -
12.12.2018 00:00:00 11,7 7,6 16 9 - - W 1023,5 -
11.12.2018 23:00:00 11,6 8,3 22 12 - - W 1023,8 -
11.12.2018 22:00:00 11,1 9,9 22 12 - - WNW 1023,9 7
11.12.2018 21:00:00 12,2 10,8 26 14 - - WNW 1023,5 -
11.12.2018 20:00:00 10,8 7,4 16 9 - - ZZW 1022,4 -

tt = temperatuur
td = dauwpunt
ff = windsnelheid
fx = windstoten
dd = windrichting
ppp = luchtdruk
vv = zicht

Weerstations in de omgeving